Wind_Speed
32 32 33 31 28 28 30 32 33 33 38 40 31 41 40 42 46 39 41 41 37 40
31 32 29 28 27 33 32 33 34 38 39 43 47 42 37 39 41 38 40 43 44 41
28 29 28 27 29 32 35 37 34 38 43 44 45 42 43 40 39 42 39 41 41 41
24 26 30 30 32 34 33 35 38 36 42 45 44 42 42 40 37 41 39 37 40 44
25 27 29 30 31 35 33 41 41 39 35 35 31 37 41 38 36 39 38 41 42 41
23 25 25 26 30 33 31 32 38 40 40 38 40 38 33 34 38 39 40 42 42 41
21 18 25 28 31 29 26 17 31 35 35 35 39 38 38 34 30 34 33 36 41 42
5 7 29 33 34 27 23 20 31 28 32 32 29 33 34 34 32 32 32 35 38 40
26 21 29 13 23 25 20 20 19 23 24 26 30 31 33 35 35 37 38 34 39 42
31 31 35 33 28 21 15 19 19 20 21 20 20 24 29 33 33 32 33 35 34 35
32 33 34 37 34 35 36 32 27 21 15 10 4 11 18 23 25 23 26 30 34 37
31 33 36 35 33 32 38 34 32 27 25 20 18 13 4 14 21 20 21 28 32 34
35 35 36 34 35 33 32 30 29 28 25 25 22 22 19 13 7 6 12 15 20 25
35 35 33 34 35 34 33 32 31 28 27 26 25 24 23 21 17 13 13 14 17 21
Wind_Direction
216 217 224 225 223 229 229 228 224 229 222 216 213 195 204 205 204 208 203 206 203 208
221 221 223 225 231 231 228 229 225 225 222 217 216 218 214 207 199 205 204 209 210 211
226 231 234 234 231 232 236 230 230 225 224 217 214 207 206 207 200 200 208 208 209 214
226 234 241 228 231 236 241 235 230 226 218 210 201 196 199 203 198 198 206 206 210 217
235 235 229 234 235 246 268 231 226 210 181 180 188 193 193 194 194 198 203 206 211 217
239 223 218 229 237 250 254 224 209 197 201 201 196 194 193 195 199 203 205 208 211 216
234 243 240 231 232 240 235 206 189 186 182 183 182 186 198 198 201 204 209 212 217 216
45 263 235 232 229 219 216 215 181 169 170 176 178 188 195 200 204 210 214 220 225 229
46 50 67 136 172 182 199 201 178 180 181 182 188 201 209 214 217 220 222 229 231 233
46 44 51 61 83 91 122 152 162 173 176 183 198 207 212 216 218 220 223 224 229 232
39 43 44 48 53 62 74 75 78 80 89 109 113 211 224 218 220 234 238 237 238 239
40 45 46 44 42 48 62 62 65 64 65 63 51 35 263 232 233 237 250 253 254 256
41 47 50 50 48 52 59 58 59 56 52 48 45 37 34 27 357 309 299 283 268 258
46 46 48 49 48 48 48 47 44 45 42 39 34 29 24 20 13 0 332 318 303 287
Height
713 718 722 725 729 733 735 738 742 745 748 753 757 757 763 770 776 780 785 790 795 799
708 713 716 720 724 727 728 731 734 738 741 745 750 754 758 765 767 775 780 783 788 794
702 706 709 714 717 718 720 722 724 727 732 736 741 743 751 758 761 764 774 777 782 787
694 697 700 702 705 708 711 713 715 716 720 724 729 731 742 750 755 757 766 771 775 779
686 688 690 692 694 694 696 696 702 708 711 714 722 729 735 742 746 751 759 762 768 772
679 678 680 681 685 691 690 687 691 698 704 708 714 724 730 735 741 745 752 755 760 765
674 671 671 675 681 682 684 676 684 690 699 705 709 714 725 729 736 743 747 750 754 758
672 669 665 669 672 676 680 682 684 687 696 702 703 714 722 727 732 738 744 746 751 754
669 665 659 662 668 674 677 682 683 687 693 700 707 713 719 725 730 734 738 741 747 747
674 669 667 667 669 675 679 685 688 692 694 702 707 714 719 723 726 729 733 737 739 742
684 680 680 676 678 679 681 686 691 693 698 705 711 717 721 722 724 727 730 732 734 735
699 694 690 691 690 689 690 694 698 703 706 711 715 718 720 721 724 727 728 730 732 732
709 706 705 707 705 704 703 706 708 711 715 715 718 721 723 722 722 723 725 725 726 727
720 718 717 716 713 712 711 712 714 715 717 719 722 723 725 724 725 725 725 725 725 725